This is the latest recevied weather packets stored in our database for station/object N3MFL. If no packets are shown the sender has not sent any weather packets the latest 10 day(s).
| Time | Temp. | Humidity | Pressure | Rain* | Wind** | Luminosity | Snow |
|---|---|---|---|---|---|---|---|
| 1778027774 | 14.44° C | 74% | 1012.1 hPa | 0 mm | - | 0 W/m² | - |
| 1778027470 | 14.44° C | 75% | 1012 hPa | 0 mm | - | 0 W/m² | - |
| 1778027166 | 14.44° C | 75% | 1012.1 hPa | 0 mm | - | 0 W/m² | - |
| 1778026862 | 14.44° C | 75% | 1012 hPa | 0 mm | - | 0 W/m² | - |
| 1778026559 | 14.44° C | 76% | 1011.7 hPa | 0 mm | - | 0 W/m² | - |
| 1778026256 | 14.44° C | 75% | 1011.9 hPa | 0 mm | - | 0 W/m² | - |
| 1778025954 | 14.44° C | 75% | 1011.8 hPa | 0 mm | - | 0 W/m² | - |
| 1778025651 | 14.44° C | 74% | 1011.5 hPa | 0 mm | - | 0 W/m² | - |
| 1778025349 | 15° C | 74% | 1011.4 hPa | 0 mm | - | 1 W/m² | - |
| 1778025045 | 15° C | 74% | 1011.4 hPa | 0 mm | - | 2 W/m² | - |
| 1778024742 | 15° C | 73% | 1011.2 hPa | 0 mm | - | 3 W/m² | - |
| 1778024439 | 15° C | 73% | 1011.2 hPa | 0 mm | - | 5 W/m² | - |
| 1778024137 | 15° C | 73% | 1011.3 hPa | 0 mm | - | 7 W/m² | - |
| 1778023834 | 15° C | 72% | 1011 hPa | 0 mm | - | 11 W/m² | - |
| 1778023532 | 15.56° C | 72% | 1011 hPa | 0 mm | - | 15 W/m² | - |
| 1778023229 | 15.56° C | 72% | 1011 hPa | 0 mm | - | 19 W/m² | - |
| 1778022926 | 15.56° C | 72% | 1010.9 hPa | 0 mm | - | 24 W/m² | - |
| 1778022625 | 15.56° C | 71% | 1010.5 hPa | 0 mm | - | 30 W/m² | - |
| 1778022321 | 15.56° C | 71% | 1010.8 hPa | 0 mm | - | 36 W/m² | - |
| 1778022018 | 15.56° C | 71% | 1010.4 hPa | 0 mm | - | 42 W/m² | - |
| 1778021715 | 15.56° C | 72% | 1010.5 hPa | 0 mm | - | 46 W/m² | - |
| 1778021411 | 15.56° C | 72% | 1010.6 hPa | 0 mm | - | 51 W/m² | - |
| 1778021108 | 15.56° C | 72% | 1010.5 hPa | 0 mm | - | 56 W/m² | - |
| 1778020805 | 15.56° C | 72% | 1010.8 hPa | 0 mm | - | 60 W/m² | - |
| 1778020502 | 15.56° C | 72% | 1010.6 hPa | 0 mm | - | 63 W/m² | - |
* Rain latest hour (hover to see other rain measurements)
** Current wind speed in m/s (hover to see current wind gust speed)